Index of /20260501/WXO-DD/model_caps/3km/12/001
Name Last modified Size Description
Parent Directory -
20260501T12Z_MSC_CAPS_AbsoluteVorticity_IsbL-0250_RLatLon0.03_PT001H.grib2 2026-05-01 18:12 1.0M
20260501T12Z_MSC_CAPS_AbsoluteVorticity_IsbL-0500_RLatLon0.03_PT001H.grib2 2026-05-01 18:12 1.2M
20260501T12Z_MSC_CAPS_AbsoluteVorticity_IsbL-0700_RLatLon0.03_PT001H.grib2 2026-05-01 18:12 1.0M
20260501T12Z_MSC_CAPS_AbsoluteVorticity_IsbL-0850_RLatLon0.03_PT001H.grib2 2026-05-01 18:12 1.2M
20260501T12Z_MSC_CAPS_AbsoluteVorticity_IsbL-1000_RLatLon0.03_PT001H.grib2 2026-05-01 18:12 1.3M
20260501T12Z_MSC_CAPS_AirDensity_AGL-120m_RLatLon0.03_PT001H.grib2 2026-05-01 18:12 1.4M
20260501T12Z_MSC_CAPS_AirDensity_AGL-40m_RLatLon0.03_PT001H.grib2 2026-05-01 18:12 1.5M
20260501T12Z_MSC_CAPS_AirDensity_AGL-80m_RLatLon0.03_PT001H.grib2 2026-05-01 18:12 1.4M
20260501T12Z_MSC_CAPS_AirTemp_AGL-120m_RLatLon0.03_PT001H.grib2 2026-05-01 18:12 1.4M
20260501T12Z_MSC_CAPS_AirTemp_AGL-2m_RLatLon0.03_PT001H.grib2 2026-05-01 18:12 1.8M
20260501T12Z_MSC_CAPS_AirTemp_AGL-40m_RLatLon0.03_PT001H.grib2 2026-05-01 18:12 1.5M
20260501T12Z_MSC_CAPS_AirTemp_AGL-80m_RLatLon0.03_PT001H.grib2 2026-05-01 18:12 1.4M
20260501T12Z_MSC_CAPS_AirTemp_IsbL-0050_RLatLon0.03_PT001H.grib2 2026-05-01 18:12 707K
20260501T12Z_MSC_CAPS_AirTemp_IsbL-0100_RLatLon0.03_PT001H.grib2 2026-05-01 18:12 765K
20260501T12Z_MSC_CAPS_AirTemp_IsbL-0150_RLatLon0.03_PT001H.grib2 2026-05-01 18:12 958K
20260501T12Z_MSC_CAPS_AirTemp_IsbL-0175_RLatLon0.03_PT001H.grib2 2026-05-01 18:12 745K
20260501T12Z_MSC_CAPS_AirTemp_IsbL-0200_RLatLon0.03_PT001H.grib2 2026-05-01 18:12 766K
20260501T12Z_MSC_CAPS_AirTemp_IsbL-0225_RLatLon0.03_PT001H.grib2 2026-05-01 18:12 770K
20260501T12Z_MSC_CAPS_AirTemp_IsbL-0250_RLatLon0.03_PT001H.grib2 2026-05-01 18:12 766K
20260501T12Z_MSC_CAPS_AirTemp_IsbL-0275_RLatLon0.03_PT001H.grib2 2026-05-01 18:12 1.0M
20260501T12Z_MSC_CAPS_AirTemp_IsbL-0300_RLatLon0.03_PT001H.grib2 2026-05-01 18:12 1.0M
20260501T12Z_MSC_CAPS_AirTemp_IsbL-0350_RLatLon0.03_PT001H.grib2 2026-05-01 18:12 968K
20260501T12Z_MSC_CAPS_AirTemp_IsbL-0400_RLatLon0.03_PT001H.grib2 2026-05-01 18:12 741K
20260501T12Z_MSC_CAPS_AirTemp_IsbL-0450_RLatLon0.03_PT001H.grib2 2026-05-01 18:12 747K
20260501T12Z_MSC_CAPS_AirTemp_IsbL-0500_RLatLon0.03_PT001H.grib2 2026-05-01 18:12 759K
20260501T12Z_MSC_CAPS_AirTemp_IsbL-0550_RLatLon0.03_PT001H.grib2 2026-05-01 18:12 772K
20260501T12Z_MSC_CAPS_AirTemp_IsbL-0600_RLatLon0.03_PT001H.grib2 2026-05-01 18:12 944K
20260501T12Z_MSC_CAPS_AirTemp_IsbL-0650_RLatLon0.03_PT001H.grib2 2026-05-01 18:12 964K
20260501T12Z_MSC_CAPS_AirTemp_IsbL-0700_RLatLon0.03_PT001H.grib2 2026-05-01 18:12 1.0M
20260501T12Z_MSC_CAPS_AirTemp_IsbL-0750_RLatLon0.03_PT001H.grib2 2026-05-01 18:12 1.0M
20260501T12Z_MSC_CAPS_AirTemp_IsbL-0800_RLatLon0.03_PT001H.grib2 2026-05-01 18:12 1.0M
20260501T12Z_MSC_CAPS_AirTemp_IsbL-0850_RLatLon0.03_PT001H.grib2 2026-05-01 18:12 1.1M
20260501T12Z_MSC_CAPS_AirTemp_IsbL-0875_RLatLon0.03_PT001H.grib2 2026-05-01 18:12 1.1M
20260501T12Z_MSC_CAPS_AirTemp_IsbL-0900_RLatLon0.03_PT001H.grib2 2026-05-01 18:12 1.1M
20260501T12Z_MSC_CAPS_AirTemp_IsbL-0925_RLatLon0.03_PT001H.grib2 2026-05-01 18:12 1.1M
20260501T12Z_MSC_CAPS_AirTemp_IsbL-0950_RLatLon0.03_PT001H.grib2 2026-05-01 18:12 1.0M
20260501T12Z_MSC_CAPS_AirTemp_IsbL-0970_RLatLon0.03_PT001H.grib2 2026-05-01 18:12 1.0M
20260501T12Z_MSC_CAPS_AirTemp_IsbL-0985_RLatLon0.03_PT001H.grib2 2026-05-01 18:12 1.0M
20260501T12Z_MSC_CAPS_AirTemp_IsbL-1000_RLatLon0.03_PT001H.grib2 2026-05-01 18:12 1.0M
20260501T12Z_MSC_CAPS_AirTemp_IsbL-1015_RLatLon0.03_PT001H.grib2 2026-05-01 18:12 874K
20260501T12Z_MSC_CAPS_Albedo_Sfc_RLatLon0.03_PT001H.grib2 2026-05-01 18:12 2.7M
20260501T12Z_MSC_CAPS_CAPE_Sfc_RLatLon0.03_PT001H.grib2 2026-05-01 18:12 25K
20260501T12Z_MSC_CAPS_CloudWater_EAtm_RLatLon0.03_PT001H.grib2 2026-05-01 18:12 1.3M
20260501T12Z_MSC_CAPS_ConvectivePrecip-Accum_Sfc_RLatLon0.03_PT001H.grib2 2026-05-01 18:12 744K
20260501T12Z_MSC_CAPS_DewPointDepression_AGL-120m_RLatLon0.03_PT001H.grib2 2026-05-01 18:12 1.9M
20260501T12Z_MSC_CAPS_DewPointDepression_AGL-2m_RLatLon0.03_PT001H.grib2 2026-05-01 18:12 2.1M
20260501T12Z_MSC_CAPS_DewPointDepression_AGL-40m_RLatLon0.03_PT001H.grib2 2026-05-01 18:12 2.0M
20260501T12Z_MSC_CAPS_DewPointDepression_AGL-80m_RLatLon0.03_PT001H.grib2 2026-05-01 18:12 1.9M
20260501T12Z_MSC_CAPS_DewPointDepression_IsbL-0050_RLatLon0.03_PT001H.grib2 2026-05-01 18:12 4.8K
20260501T12Z_MSC_CAPS_DewPointDepression_IsbL-0100_RLatLon0.03_PT001H.grib2 2026-05-01 18:12 138K
20260501T12Z_MSC_CAPS_DewPointDepression_IsbL-0150_RLatLon0.03_PT001H.grib2 2026-05-01 18:12 124K
20260501T12Z_MSC_CAPS_DewPointDepression_IsbL-0175_RLatLon0.03_PT001H.grib2 2026-05-01 18:12 228K
20260501T12Z_MSC_CAPS_DewPointDepression_IsbL-0200_RLatLon0.03_PT001H.grib2 2026-05-01 18:12 410K
20260501T12Z_MSC_CAPS_DewPointDepression_IsbL-0225_RLatLon0.03_PT001H.grib2 2026-05-01 18:12 628K
20260501T12Z_MSC_CAPS_DewPointDepression_IsbL-0250_RLatLon0.03_PT001H.grib2 2026-05-01 18:12 802K
20260501T12Z_MSC_CAPS_DewPointDepression_IsbL-0275_RLatLon0.03_PT001H.grib2 2026-05-01 18:12 891K
20260501T12Z_MSC_CAPS_DewPointDepression_IsbL-0300_RLatLon0.03_PT001H.grib2 2026-05-01 18:12 947K
20260501T12Z_MSC_CAPS_DewPointDepression_IsbL-0350_RLatLon0.03_PT001H.grib2 2026-05-01 18:12 1.0M
20260501T12Z_MSC_CAPS_DewPointDepression_IsbL-0400_RLatLon0.03_PT001H.grib2 2026-05-01 18:12 1.0M
20260501T12Z_MSC_CAPS_DewPointDepression_IsbL-0450_RLatLon0.03_PT001H.grib2 2026-05-01 18:12 1.0M
20260501T12Z_MSC_CAPS_DewPointDepression_IsbL-0500_RLatLon0.03_PT001H.grib2 2026-05-01 18:12 1.0M
20260501T12Z_MSC_CAPS_DewPointDepression_IsbL-0550_RLatLon0.03_PT001H.grib2 2026-05-01 18:12 1.0M
20260501T12Z_MSC_CAPS_DewPointDepression_IsbL-0600_RLatLon0.03_PT001H.grib2 2026-05-01 18:12 1.0M
20260501T12Z_MSC_CAPS_DewPointDepression_IsbL-0650_RLatLon0.03_PT001H.grib2 2026-05-01 18:12 1.1M
20260501T12Z_MSC_CAPS_DewPointDepression_IsbL-0700_RLatLon0.03_PT001H.grib2 2026-05-01 18:12 1.1M
20260501T12Z_MSC_CAPS_DewPointDepression_IsbL-0750_RLatLon0.03_PT001H.grib2 2026-05-01 18:12 1.1M
20260501T12Z_MSC_CAPS_DewPointDepression_IsbL-0800_RLatLon0.03_PT001H.grib2 2026-05-01 18:12 1.2M
20260501T12Z_MSC_CAPS_DewPointDepression_IsbL-0850_RLatLon0.03_PT001H.grib2 2026-05-01 18:12 1.2M
20260501T12Z_MSC_CAPS_DewPointDepression_IsbL-0875_RLatLon0.03_PT001H.grib2 2026-05-01 18:12 1.2M
20260501T12Z_MSC_CAPS_DewPointDepression_IsbL-0900_RLatLon0.03_PT001H.grib2 2026-05-01 18:12 1.2M
20260501T12Z_MSC_CAPS_DewPointDepression_IsbL-0925_RLatLon0.03_PT001H.grib2 2026-05-01 18:12 1.3M
20260501T12Z_MSC_CAPS_DewPointDepression_IsbL-0950_RLatLon0.03_PT001H.grib2 2026-05-01 18:12 1.3M
20260501T12Z_MSC_CAPS_DewPointDepression_IsbL-0970_RLatLon0.03_PT001H.grib2 2026-05-01 18:12 1.3M
20260501T12Z_MSC_CAPS_DewPointDepression_IsbL-0985_RLatLon0.03_PT001H.grib2 2026-05-01 18:12 1.3M
20260501T12Z_MSC_CAPS_DewPointDepression_IsbL-1000_RLatLon0.03_PT001H.grib2 2026-05-01 18:12 1.3M
20260501T12Z_MSC_CAPS_DewPointDepression_IsbL-1015_RLatLon0.03_PT001H.grib2 2026-05-01 18:12 1.3M
20260501T12Z_MSC_CAPS_DewPoint_AGL-120m_RLatLon0.03_PT001H.grib2 2026-05-01 18:12 3.4M
20260501T12Z_MSC_CAPS_DewPoint_AGL-2m_RLatLon0.03_PT001H.grib2 2026-05-01 18:12 2.2M
20260501T12Z_MSC_CAPS_DewPoint_AGL-40m_RLatLon0.03_PT001H.grib2 2026-05-01 18:12 3.6M
20260501T12Z_MSC_CAPS_DewPoint_AGL-80m_RLatLon0.03_PT001H.grib2 2026-05-01 18:12 3.5M
20260501T12Z_MSC_CAPS_DownwardLongwaveRadiationFlux-Accum_Sfc_RLatLon0.03_PT001H.grib2 2026-05-01 18:12 2.3M
20260501T12Z_MSC_CAPS_DownwardShortwaveRadiationFlux-Accum_NTAtm_RLatLon0.03_PT001H.grib2 2026-05-01 18:12 306K
20260501T12Z_MSC_CAPS_DownwardShortwaveRadiationFlux-Accum_Sfc_RLatLon0.03_PT001H.grib2 2026-05-01 18:12 1.8M
20260501T12Z_MSC_CAPS_FreezingRain-Accum_Sfc_RLatLon0.03_PT001H.grib2 2026-05-01 18:12 127K
20260501T12Z_MSC_CAPS_GeopotentialHeight_IsbL-0050_RLatLon0.03_PT001H.grib2 2026-05-01 18:12 652K
20260501T12Z_MSC_CAPS_GeopotentialHeight_IsbL-0100_RLatLon0.03_PT001H.grib2 2026-05-01 18:12 756K
20260501T12Z_MSC_CAPS_GeopotentialHeight_IsbL-0150_RLatLon0.03_PT001H.grib2 2026-05-01 18:12 614K
20260501T12Z_MSC_CAPS_GeopotentialHeight_IsbL-0175_RLatLon0.03_PT001H.grib2 2026-05-01 18:12 620K
20260501T12Z_MSC_CAPS_GeopotentialHeight_IsbL-0200_RLatLon0.03_PT001H.grib2 2026-05-01 18:12 742K
20260501T12Z_MSC_CAPS_GeopotentialHeight_IsbL-0225_RLatLon0.03_PT001H.grib2 2026-05-01 18:12 756K
20260501T12Z_MSC_CAPS_GeopotentialHeight_IsbL-0250_RLatLon0.03_PT001H.grib2 2026-05-01 18:12 764K
20260501T12Z_MSC_CAPS_GeopotentialHeight_IsbL-0275_RLatLon0.03_PT001H.grib2 2026-05-01 18:12 773K
20260501T12Z_MSC_CAPS_GeopotentialHeight_IsbL-0300_RLatLon0.03_PT001H.grib2 2026-05-01 18:12 774K
20260501T12Z_MSC_CAPS_GeopotentialHeight_IsbL-0350_RLatLon0.03_PT001H.grib2 2026-05-01 18:12 777K
20260501T12Z_MSC_CAPS_GeopotentialHeight_IsbL-0400_RLatLon0.03_PT001H.grib2 2026-05-01 18:12 773K
20260501T12Z_MSC_CAPS_GeopotentialHeight_IsbL-0450_RLatLon0.03_PT001H.grib2 2026-05-01 18:12 770K
20260501T12Z_MSC_CAPS_GeopotentialHeight_IsbL-0500_RLatLon0.03_PT001H.grib2 2026-05-01 18:12 762K
20260501T12Z_MSC_CAPS_GeopotentialHeight_IsbL-0550_RLatLon0.03_PT001H.grib2 2026-05-01 18:12 756K
20260501T12Z_MSC_CAPS_GeopotentialHeight_IsbL-0600_RLatLon0.03_PT001H.grib2 2026-05-01 18:12 637K
20260501T12Z_MSC_CAPS_GeopotentialHeight_IsbL-0650_RLatLon0.03_PT001H.grib2 2026-05-01 18:12 635K
20260501T12Z_MSC_CAPS_GeopotentialHeight_IsbL-0700_RLatLon0.03_PT001H.grib2 2026-05-01 18:12 807K
20260501T12Z_MSC_CAPS_GeopotentialHeight_IsbL-0750_RLatLon0.03_PT001H.grib2 2026-05-01 18:12 809K
20260501T12Z_MSC_CAPS_GeopotentialHeight_IsbL-0800_RLatLon0.03_PT001H.grib2 2026-05-01 18:12 814K
20260501T12Z_MSC_CAPS_GeopotentialHeight_IsbL-0850_RLatLon0.03_PT001H.grib2 2026-05-01 18:12 821K
20260501T12Z_MSC_CAPS_GeopotentialHeight_IsbL-0875_RLatLon0.03_PT001H.grib2 2026-05-01 18:12 904K
20260501T12Z_MSC_CAPS_GeopotentialHeight_IsbL-0900_RLatLon0.03_PT001H.grib2 2026-05-01 18:12 910K
20260501T12Z_MSC_CAPS_GeopotentialHeight_IsbL-0925_RLatLon0.03_PT001H.grib2 2026-05-01 18:12 922K
20260501T12Z_MSC_CAPS_GeopotentialHeight_IsbL-0950_RLatLon0.03_PT001H.grib2 2026-05-01 18:12 934K
20260501T12Z_MSC_CAPS_GeopotentialHeight_IsbL-0970_RLatLon0.03_PT001H.grib2 2026-05-01 18:12 946K
20260501T12Z_MSC_CAPS_GeopotentialHeight_IsbL-0985_RLatLon0.03_PT001H.grib2 2026-05-01 18:12 954K
20260501T12Z_MSC_CAPS_GeopotentialHeight_IsbL-1000_RLatLon0.03_PT001H.grib2 2026-05-01 18:12 963K
20260501T12Z_MSC_CAPS_GeopotentialHeight_IsbL-1015_RLatLon0.03_PT001H.grib2 2026-05-01 18:12 1.0M
20260501T12Z_MSC_CAPS_GeopotentialHeight_Sfc_RLatLon0.03_PT001H.grib2 2026-05-01 18:12 1.0M
20260501T12Z_MSC_CAPS_IcePellets-Accum_Sfc_RLatLon0.03_PT001H.grib2 2026-05-01 18:12 4.3K
20260501T12Z_MSC_CAPS_LatentHeatNetFlux_Sfc_RLatLon0.03_PT001H.grib2 2026-05-01 18:12 1.7M
20260501T12Z_MSC_CAPS_LiftedIndex-MU-VT_IsbL-0500_RLatLon0.03_PT001H.grib2 2026-05-01 18:12 3.3M
20260501T12Z_MSC_CAPS_MixedLayerThickness_Sfc_RLatLon0.03_PT001H.nc 2026-05-01 18:14 17M
20260501T12Z_MSC_CAPS_NetLongwaveRadiationFlux-Accum_Sfc_RLatLon0.03_PT001H.grib2 2026-05-01 18:12 2.7M
20260501T12Z_MSC_CAPS_NetShortwaveRadiationFlux-Accum_Sfc_RLatLon0.03_PT001H.grib2 2026-05-01 18:12 2.0M
20260501T12Z_MSC_CAPS_PlanetaryBoundaryLayerHeight_Sfc_RLatLon0.03_PT001H.grib2 2026-05-01 18:12 2.5M
20260501T12Z_MSC_CAPS_Precip-Accum_Sfc_RLatLon0.03_PT001H.grib2 2026-05-01 18:12 2.1M
20260501T12Z_MSC_CAPS_PrecipRate_Sfc_RLatLon0.03_PT001H.grib2 2026-05-01 18:12 222K
20260501T12Z_MSC_CAPS_PrecipType-Instant_Sfc_RLatLon0.03_PT001H.grib2 2026-05-01 18:12 1.2M
20260501T12Z_MSC_CAPS_Pressure_MSL_RLatLon0.03_PT001H.grib2 2026-05-01 18:12 771K
20260501T12Z_MSC_CAPS_Pressure_Sfc_RLatLon0.03_PT001H.grib2 2026-05-01 18:12 1.2M
20260501T12Z_MSC_CAPS_RadiativeTemp_Sfc_RLatLon0.03_PT001H.grib2 2026-05-01 18:12 2.2M
20260501T12Z_MSC_CAPS_Rain-Accum_Sfc_RLatLon0.03_PT001H.grib2 2026-05-01 18:12 726K
20260501T12Z_MSC_CAPS_RelativeHumidity_AGL-120m_RLatLon0.03_PT001H.grib2 2026-05-01 18:12 2.6M
20260501T12Z_MSC_CAPS_RelativeHumidity_AGL-2m_RLatLon0.03_PT001H.grib2 2026-05-01 18:12 2.9M
20260501T12Z_MSC_CAPS_RelativeHumidity_AGL-40m_RLatLon0.03_PT001H.grib2 2026-05-01 18:12 2.8M
20260501T12Z_MSC_CAPS_RelativeHumidity_AGL-80m_RLatLon0.03_PT001H.grib2 2026-05-01 18:12 2.7M
20260501T12Z_MSC_CAPS_RelativeHumidity_IsbL-0050_RLatLon0.03_PT001H.grib2 2026-05-01 18:12 964K
20260501T12Z_MSC_CAPS_RelativeHumidity_IsbL-0100_RLatLon0.03_PT001H.grib2 2026-05-01 18:12 790K
20260501T12Z_MSC_CAPS_RelativeHumidity_IsbL-0150_RLatLon0.03_PT001H.grib2 2026-05-01 18:12 835K
20260501T12Z_MSC_CAPS_RelativeHumidity_IsbL-0175_RLatLon0.03_PT001H.grib2 2026-05-01 18:12 450K
20260501T12Z_MSC_CAPS_RelativeHumidity_IsbL-0200_RLatLon0.03_PT001H.grib2 2026-05-01 18:12 653K
20260501T12Z_MSC_CAPS_RelativeHumidity_IsbL-0225_RLatLon0.03_PT001H.grib2 2026-05-01 18:12 845K
20260501T12Z_MSC_CAPS_RelativeHumidity_IsbL-0250_RLatLon0.03_PT001H.grib2 2026-05-01 18:12 1.0M
20260501T12Z_MSC_CAPS_RelativeHumidity_IsbL-0275_RLatLon0.03_PT001H.grib2 2026-05-01 18:12 1.3M
20260501T12Z_MSC_CAPS_RelativeHumidity_IsbL-0300_RLatLon0.03_PT001H.grib2 2026-05-01 18:12 1.4M
20260501T12Z_MSC_CAPS_RelativeHumidity_IsbL-0350_RLatLon0.03_PT001H.grib2 2026-05-01 18:12 1.6M
20260501T12Z_MSC_CAPS_RelativeHumidity_IsbL-0400_RLatLon0.03_PT001H.grib2 2026-05-01 18:12 1.7M
20260501T12Z_MSC_CAPS_RelativeHumidity_IsbL-0450_RLatLon0.03_PT001H.grib2 2026-05-01 18:12 1.8M
20260501T12Z_MSC_CAPS_RelativeHumidity_IsbL-0500_RLatLon0.03_PT001H.grib2 2026-05-01 18:12 1.7M
20260501T12Z_MSC_CAPS_RelativeHumidity_IsbL-0550_RLatLon0.03_PT001H.grib2 2026-05-01 18:12 1.8M
20260501T12Z_MSC_CAPS_RelativeHumidity_IsbL-0600_RLatLon0.03_PT001H.grib2 2026-05-01 18:12 1.9M
20260501T12Z_MSC_CAPS_RelativeHumidity_IsbL-0650_RLatLon0.03_PT001H.grib2 2026-05-01 18:12 2.0M
20260501T12Z_MSC_CAPS_RelativeHumidity_IsbL-0700_RLatLon0.03_PT001H.grib2 2026-05-01 18:12 2.1M
20260501T12Z_MSC_CAPS_RelativeHumidity_IsbL-0750_RLatLon0.03_PT001H.grib2 2026-05-01 18:12 2.1M
20260501T12Z_MSC_CAPS_RelativeHumidity_IsbL-0800_RLatLon0.03_PT001H.grib2 2026-05-01 18:12 2.1M
20260501T12Z_MSC_CAPS_RelativeHumidity_IsbL-0850_RLatLon0.03_PT001H.grib2 2026-05-01 18:12 2.2M
20260501T12Z_MSC_CAPS_RelativeHumidity_IsbL-0875_RLatLon0.03_PT001H.grib2 2026-05-01 18:12 2.3M
20260501T12Z_MSC_CAPS_RelativeHumidity_IsbL-0900_RLatLon0.03_PT001H.grib2 2026-05-01 18:12 2.3M
20260501T12Z_MSC_CAPS_RelativeHumidity_IsbL-0925_RLatLon0.03_PT001H.grib2 2026-05-01 18:12 2.5M
20260501T12Z_MSC_CAPS_RelativeHumidity_IsbL-0950_RLatLon0.03_PT001H.grib2 2026-05-01 18:12 2.6M
20260501T12Z_MSC_CAPS_RelativeHumidity_IsbL-0970_RLatLon0.03_PT001H.grib2 2026-05-01 18:12 2.7M
20260501T12Z_MSC_CAPS_RelativeHumidity_IsbL-0985_RLatLon0.03_PT001H.grib2 2026-05-01 18:12 2.7M
20260501T12Z_MSC_CAPS_RelativeHumidity_IsbL-1000_RLatLon0.03_PT001H.grib2 2026-05-01 18:12 2.8M
20260501T12Z_MSC_CAPS_RelativeHumidity_IsbL-1015_RLatLon0.03_PT001H.grib2 2026-05-01 18:12 2.9M
20260501T12Z_MSC_CAPS_Runoff-Accum_Sfc_RLatLon0.03_PT001H.grib2 2026-05-01 18:12 282K
20260501T12Z_MSC_CAPS_SeaIceAreaFraction_Sfc_RLatLon0.03_PT001H.nc 2026-05-01 18:14 15M
20260501T12Z_MSC_CAPS_SeaIceCompressiveStrength_Sfc_RLatLon0.03_PT001H.nc 2026-05-01 18:14 15M
20260501T12Z_MSC_CAPS_SeaIceDivergence_Sfc_RLatLon0.03_PT001H.nc 2026-05-01 18:14 15M
20260501T12Z_MSC_CAPS_SeaIceInternalPressure_Sfc_RLatLon0.03_PT001H.nc 2026-05-01 18:14 15M
20260501T12Z_MSC_CAPS_SeaIceShear_Sfc_RLatLon0.03_PT001H.nc 2026-05-01 18:14 15M
20260501T12Z_MSC_CAPS_SeaIceSnowTemp_Sfc_RLatLon0.03_PT001H.nc 2026-05-01 18:14 15M
20260501T12Z_MSC_CAPS_SeaIceSnowVolume_Sfc_RLatLon0.03_PT001H.nc 2026-05-01 18:14 15M
20260501T12Z_MSC_CAPS_SeaIceVelocityX_Sfc_RLatLon0.03_PT001H.nc 2026-05-01 18:14 15M
20260501T12Z_MSC_CAPS_SeaIceVelocityY_Sfc_RLatLon0.03_PT001H.nc 2026-05-01 18:14 15M
20260501T12Z_MSC_CAPS_SeaIceVolume_Sfc_RLatLon0.03_PT001H.nc 2026-05-01 18:14 15M
20260501T12Z_MSC_CAPS_SeaSurfaceHeight_Sfc_RLatLon0.03_PT001H.nc 2026-05-01 18:14 16M
20260501T12Z_MSC_CAPS_SeaWaterSalinity_DBS-0.5m_RLatLon0.03_PT001H.nc 2026-05-01 18:14 16M
20260501T12Z_MSC_CAPS_SeaWaterSalinity_DBS-all_RLatLon0.03_PT001H.nc 2026-05-01 18:14 107M
20260501T12Z_MSC_CAPS_SeaWaterTemp_DBS-0.5m_RLatLon0.03_PT001H.nc 2026-05-01 18:14 14M
20260501T12Z_MSC_CAPS_SeaWaterTemp_DBS-all_RLatLon0.03_PT001H.nc 2026-05-01 18:14 87M
20260501T12Z_MSC_CAPS_SeaWaterVelocityX_DBS-0.5m_RLatLon0.03_PT001H.nc 2026-05-01 18:14 17M
20260501T12Z_MSC_CAPS_SeaWaterVelocityX_DBS-all_RLatLon0.03_PT001H.nc 2026-05-01 18:14 209M
20260501T12Z_MSC_CAPS_SeaWaterVelocityY_DBS-0.5m_RLatLon0.03_PT001H.nc 2026-05-01 18:14 17M
20260501T12Z_MSC_CAPS_SeaWaterVelocityY_DBS-all_RLatLon0.03_PT001H.nc 2026-05-01 18:14 213M
20260501T12Z_MSC_CAPS_SensibleHeatNetFlux_Sfc_RLatLon0.03_PT001H.grib2 2026-05-01 18:12 2.0M
20260501T12Z_MSC_CAPS_ShowalterIndex_IsbL-0500_RLatLon0.03_PT001H.grib2 2026-05-01 18:12 4.2M
20260501T12Z_MSC_CAPS_Snow-Accum_Sfc_RLatLon0.03_PT001H.grib2 2026-05-01 18:12 1.5M
20260501T12Z_MSC_CAPS_SnowDensity_Sfc_RLatLon0.03_PT001H.grib2 2026-05-01 18:12 1.1M
20260501T12Z_MSC_CAPS_SnowDepthWaterEquivalent_Sfc_RLatLon0.03_PT001H.grib2 2026-05-01 18:12 672K
20260501T12Z_MSC_CAPS_SnowDepth_Sfc_RLatLon0.03_PT001H.grib2 2026-05-01 18:12 1.2M
20260501T12Z_MSC_CAPS_SoilTemp_DBS-0to10cm_RLatLon0.03_PT001H.grib2 2026-05-01 18:12 1.1M
20260501T12Z_MSC_CAPS_SoilTemp_Sfc_RLatLon0.03_PT001H.grib2 2026-05-01 18:12 1.8M
20260501T12Z_MSC_CAPS_SoilVolumetricIceContent_Sfc_RLatLon0.03_PT001H.grib2 2026-05-01 18:12 1.3M
20260501T12Z_MSC_CAPS_SoilVolumetricWaterContent_DBS-0to10cm_RLatLon0.03_PT001H.grib2 2026-05-01 18:12 1.1M
20260501T12Z_MSC_CAPS_SoilVolumetricWaterContent_DBS-0to1cm_RLatLon0.03_PT001H.grib2 2026-05-01 18:12 1.6M
20260501T12Z_MSC_CAPS_SpecificHumidity_AGL-120m_RLatLon0.03_PT001H.grib2 2026-05-01 18:12 1.5M
20260501T12Z_MSC_CAPS_SpecificHumidity_AGL-2m_RLatLon0.03_PT001H.grib2 2026-05-01 18:12 2.1M
20260501T12Z_MSC_CAPS_SpecificHumidity_AGL-40m_RLatLon0.03_PT001H.grib2 2026-05-01 18:12 1.7M
20260501T12Z_MSC_CAPS_SpecificHumidity_AGL-80m_RLatLon0.03_PT001H.grib2 2026-05-01 18:12 1.6M
20260501T12Z_MSC_CAPS_SpecificHumidity_IsbL-0050_RLatLon0.03_PT001H.grib2 2026-05-01 18:12 841K
20260501T12Z_MSC_CAPS_SpecificHumidity_IsbL-0100_RLatLon0.03_PT001H.grib2 2026-05-01 18:12 921K
20260501T12Z_MSC_CAPS_SpecificHumidity_IsbL-0150_RLatLon0.03_PT001H.grib2 2026-05-01 18:12 1.0M
20260501T12Z_MSC_CAPS_SpecificHumidity_IsbL-0175_RLatLon0.03_PT001H.grib2 2026-05-01 18:12 927K
20260501T12Z_MSC_CAPS_SpecificHumidity_IsbL-0200_RLatLon0.03_PT001H.grib2 2026-05-01 18:12 948K
20260501T12Z_MSC_CAPS_SpecificHumidity_IsbL-0225_RLatLon0.03_PT001H.grib2 2026-05-01 18:12 1.0M
20260501T12Z_MSC_CAPS_SpecificHumidity_IsbL-0250_RLatLon0.03_PT001H.grib2 2026-05-01 18:12 1.0M
20260501T12Z_MSC_CAPS_SpecificHumidity_IsbL-0275_RLatLon0.03_PT001H.grib2 2026-05-01 18:12 1.0M
20260501T12Z_MSC_CAPS_SpecificHumidity_IsbL-0300_RLatLon0.03_PT001H.grib2 2026-05-01 18:12 862K
20260501T12Z_MSC_CAPS_SpecificHumidity_IsbL-0350_RLatLon0.03_PT001H.grib2 2026-05-01 18:12 1.1M
20260501T12Z_MSC_CAPS_SpecificHumidity_IsbL-0400_RLatLon0.03_PT001H.grib2 2026-05-01 18:12 1.0M
20260501T12Z_MSC_CAPS_SpecificHumidity_IsbL-0450_RLatLon0.03_PT001H.grib2 2026-05-01 18:12 1.0M
20260501T12Z_MSC_CAPS_SpecificHumidity_IsbL-0500_RLatLon0.03_PT001H.grib2 2026-05-01 18:12 1.1M
20260501T12Z_MSC_CAPS_SpecificHumidity_IsbL-0550_RLatLon0.03_PT001H.grib2 2026-05-01 18:12 1.0M
20260501T12Z_MSC_CAPS_SpecificHumidity_IsbL-0600_RLatLon0.03_PT001H.grib2 2026-05-01 18:12 1.1M
20260501T12Z_MSC_CAPS_SpecificHumidity_IsbL-0650_RLatLon0.03_PT001H.grib2 2026-05-01 18:12 1.4M
20260501T12Z_MSC_CAPS_SpecificHumidity_IsbL-0700_RLatLon0.03_PT001H.grib2 2026-05-01 18:12 1.4M
20260501T12Z_MSC_CAPS_SpecificHumidity_IsbL-0750_RLatLon0.03_PT001H.grib2 2026-05-01 18:12 1.1M
20260501T12Z_MSC_CAPS_SpecificHumidity_IsbL-0800_RLatLon0.03_PT001H.grib2 2026-05-01 18:12 1.3M
20260501T12Z_MSC_CAPS_SpecificHumidity_IsbL-0850_RLatLon0.03_PT001H.grib2 2026-05-01 18:12 1.4M
20260501T12Z_MSC_CAPS_SpecificHumidity_IsbL-0875_RLatLon0.03_PT001H.grib2 2026-05-01 18:12 1.5M
20260501T12Z_MSC_CAPS_SpecificHumidity_IsbL-0900_RLatLon0.03_PT001H.grib2 2026-05-01 18:12 1.5M
20260501T12Z_MSC_CAPS_SpecificHumidity_IsbL-0925_RLatLon0.03_PT001H.grib2 2026-05-01 18:12 1.7M
20260501T12Z_MSC_CAPS_SpecificHumidity_IsbL-0950_RLatLon0.03_PT001H.grib2 2026-05-01 18:12 1.7M
20260501T12Z_MSC_CAPS_SpecificHumidity_IsbL-0970_RLatLon0.03_PT001H.grib2 2026-05-01 18:12 1.8M
20260501T12Z_MSC_CAPS_SpecificHumidity_IsbL-0985_RLatLon0.03_PT001H.grib2 2026-05-01 18:12 1.9M
20260501T12Z_MSC_CAPS_SpecificHumidity_IsbL-1000_RLatLon0.03_PT001H.grib2 2026-05-01 18:12 1.9M
20260501T12Z_MSC_CAPS_SpecificHumidity_IsbL-1015_RLatLon0.03_PT001H.grib2 2026-05-01 18:12 2.0M
20260501T12Z_MSC_CAPS_SpecificHumidity_Sfc_RLatLon0.03_PT001H.grib2 2026-05-01 18:12 2.0M
20260501T12Z_MSC_CAPS_StormRelativeHelicity_Sfc_RLatLon0.03_PT001H.grib2 2026-05-01 18:12 3.1M
20260501T12Z_MSC_CAPS_Thickness_IsbL-1000to0500_RLatLon0.03_PT001H.grib2 2026-05-01 18:12 469K
20260501T12Z_MSC_CAPS_TotalCloudCover_Sfc_RLatLon0.03_PT001H.grib2 2026-05-01 18:12 3.2M
20260501T12Z_MSC_CAPS_TurboclineDepth_Sfc_RLatLon0.03_PT001H.nc 2026-05-01 18:14 16M
20260501T12Z_MSC_CAPS_UpwardLongwaveRadiationFlux_NTAtm_RLatLon0.03_PT001H.grib2 2026-05-01 18:12 2.6M
20260501T12Z_MSC_CAPS_UpwardShortwaveRadiationFlux_NTAtm_RLatLon0.03_PT001H.grib2 2026-05-01 18:12 1.9M
20260501T12Z_MSC_CAPS_VerticalVelocity_IsbL-0250_RLatLon0.03_PT001H.grib2 2026-05-01 18:12 1.0M
20260501T12Z_MSC_CAPS_VerticalVelocity_IsbL-0500_RLatLon0.03_PT001H.grib2 2026-05-01 18:12 1.1M
20260501T12Z_MSC_CAPS_VerticalVelocity_IsbL-0700_RLatLon0.03_PT001H.grib2 2026-05-01 18:12 903K
20260501T12Z_MSC_CAPS_VerticalVelocity_IsbL-0850_RLatLon0.03_PT001H.grib2 2026-05-01 18:12 1.0M
20260501T12Z_MSC_CAPS_VerticalVelocity_IsbL-1000_RLatLon0.03_PT001H.grib2 2026-05-01 18:12 1.4M
20260501T12Z_MSC_CAPS_WindDir_AGL-10m_RLatLon0.03_PT001H.grib2 2026-05-01 18:12 2.5M
20260501T12Z_MSC_CAPS_WindDir_AGL-120m_RLatLon0.03_PT001H.grib2 2026-05-01 18:12 1.2M
20260501T12Z_MSC_CAPS_WindDir_AGL-40m_RLatLon0.03_PT001H.grib2 2026-05-01 18:12 1.4M
20260501T12Z_MSC_CAPS_WindDir_AGL-80m_RLatLon0.03_PT001H.grib2 2026-05-01 18:12 1.3M
20260501T12Z_MSC_CAPS_WindDir_IsbL-0050_RLatLon0.03_PT001H.grib2 2026-05-01 18:12 963K
20260501T12Z_MSC_CAPS_WindDir_IsbL-0100_RLatLon0.03_PT001H.grib2 2026-05-01 18:12 1.0M
20260501T12Z_MSC_CAPS_WindDir_IsbL-0150_RLatLon0.03_PT001H.grib2 2026-05-01 18:12 1.0M
20260501T12Z_MSC_CAPS_WindDir_IsbL-0175_RLatLon0.03_PT001H.grib2 2026-05-01 18:12 1.1M
20260501T12Z_MSC_CAPS_WindDir_IsbL-0200_RLatLon0.03_PT001H.grib2 2026-05-01 18:12 1.1M
20260501T12Z_MSC_CAPS_WindDir_IsbL-0225_RLatLon0.03_PT001H.grib2 2026-05-01 18:12 1.1M
20260501T12Z_MSC_CAPS_WindDir_IsbL-0250_RLatLon0.03_PT001H.grib2 2026-05-01 18:12 1.1M
20260501T12Z_MSC_CAPS_WindDir_IsbL-0275_RLatLon0.03_PT001H.grib2 2026-05-01 18:12 1.1M
20260501T12Z_MSC_CAPS_WindDir_IsbL-0300_RLatLon0.03_PT001H.grib2 2026-05-01 18:12 1.1M
20260501T12Z_MSC_CAPS_WindDir_IsbL-0350_RLatLon0.03_PT001H.grib2 2026-05-01 18:12 1.1M
20260501T12Z_MSC_CAPS_WindDir_IsbL-0400_RLatLon0.03_PT001H.grib2 2026-05-01 18:12 1.1M
20260501T12Z_MSC_CAPS_WindDir_IsbL-0450_RLatLon0.03_PT001H.grib2 2026-05-01 18:12 1.2M
20260501T12Z_MSC_CAPS_WindDir_IsbL-0500_RLatLon0.03_PT001H.grib2 2026-05-01 18:12 1.2M
20260501T12Z_MSC_CAPS_WindDir_IsbL-0550_RLatLon0.03_PT001H.grib2 2026-05-01 18:12 1.1M
20260501T12Z_MSC_CAPS_WindDir_IsbL-0600_RLatLon0.03_PT001H.grib2 2026-05-01 18:12 1.2M
20260501T12Z_MSC_CAPS_WindDir_IsbL-0650_RLatLon0.03_PT001H.grib2 2026-05-01 18:12 1.3M
20260501T12Z_MSC_CAPS_WindDir_IsbL-0700_RLatLon0.03_PT001H.grib2 2026-05-01 18:12 1.4M
20260501T12Z_MSC_CAPS_WindDir_IsbL-0750_RLatLon0.03_PT001H.grib2 2026-05-01 18:12 1.5M
20260501T12Z_MSC_CAPS_WindDir_IsbL-0800_RLatLon0.03_PT001H.grib2 2026-05-01 18:12 1.6M
20260501T12Z_MSC_CAPS_WindDir_IsbL-0850_RLatLon0.03_PT001H.grib2 2026-05-01 18:12 1.7M
20260501T12Z_MSC_CAPS_WindDir_IsbL-0875_RLatLon0.03_PT001H.grib2 2026-05-01 18:12 1.8M
20260501T12Z_MSC_CAPS_WindDir_IsbL-0900_RLatLon0.03_PT001H.grib2 2026-05-01 18:12 1.9M
20260501T12Z_MSC_CAPS_WindDir_IsbL-0925_RLatLon0.03_PT001H.grib2 2026-05-01 18:12 2.0M
20260501T12Z_MSC_CAPS_WindDir_IsbL-0950_RLatLon0.03_PT001H.grib2 2026-05-01 18:12 2.1M
20260501T12Z_MSC_CAPS_WindDir_IsbL-0970_RLatLon0.03_PT001H.grib2 2026-05-01 18:12 2.2M
20260501T12Z_MSC_CAPS_WindDir_IsbL-0985_RLatLon0.03_PT001H.grib2 2026-05-01 18:12 2.2M
20260501T12Z_MSC_CAPS_WindDir_IsbL-1000_RLatLon0.03_PT001H.grib2 2026-05-01 18:12 2.3M
20260501T12Z_MSC_CAPS_WindDir_IsbL-1015_RLatLon0.03_PT001H.grib2 2026-05-01 18:12 2.4M
20260501T12Z_MSC_CAPS_WindGust-Max_AGL-10m_RLatLon0.03_PT001H.grib2 2026-05-01 18:12 2.5M
20260501T12Z_MSC_CAPS_WindGust-Min_AGL-10m_RLatLon0.03_PT001H.grib2 2026-05-01 18:12 2.3M
20260501T12Z_MSC_CAPS_WindGust_AGL-10m_RLatLon0.03_PT001H.grib2 2026-05-01 18:12 2.3M
20260501T12Z_MSC_CAPS_WindSpeed_AGL-10m_RLatLon0.03_PT001H.grib2 2026-05-01 18:12 2.1M
20260501T12Z_MSC_CAPS_WindSpeed_AGL-120m_RLatLon0.03_PT001H.grib2 2026-05-01 18:12 1.1M
20260501T12Z_MSC_CAPS_WindSpeed_AGL-40m_RLatLon0.03_PT001H.grib2 2026-05-01 18:12 1.5M
20260501T12Z_MSC_CAPS_WindSpeed_AGL-80m_RLatLon0.03_PT001H.grib2 2026-05-01 18:12 1.1M
20260501T12Z_MSC_CAPS_WindSpeed_IsbL-0050_RLatLon0.03_PT001H.grib2 2026-05-01 18:12 865K
20260501T12Z_MSC_CAPS_WindSpeed_IsbL-0100_RLatLon0.03_PT001H.grib2 2026-05-01 18:12 1.1M
20260501T12Z_MSC_CAPS_WindSpeed_IsbL-0150_RLatLon0.03_PT001H.grib2 2026-05-01 18:12 1.0M
20260501T12Z_MSC_CAPS_WindSpeed_IsbL-0175_RLatLon0.03_PT001H.grib2 2026-05-01 18:12 1.1M
20260501T12Z_MSC_CAPS_WindSpeed_IsbL-0200_RLatLon0.03_PT001H.grib2 2026-05-01 18:12 861K
20260501T12Z_MSC_CAPS_WindSpeed_IsbL-0225_RLatLon0.03_PT001H.grib2 2026-05-01 18:12 932K
20260501T12Z_MSC_CAPS_WindSpeed_IsbL-0250_RLatLon0.03_PT001H.grib2 2026-05-01 18:12 952K
20260501T12Z_MSC_CAPS_WindSpeed_IsbL-0275_RLatLon0.03_PT001H.grib2 2026-05-01 18:12 960K
20260501T12Z_MSC_CAPS_WindSpeed_IsbL-0300_RLatLon0.03_PT001H.grib2 2026-05-01 18:12 969K
20260501T12Z_MSC_CAPS_WindSpeed_IsbL-0350_RLatLon0.03_PT001H.grib2 2026-05-01 18:12 1.0M
20260501T12Z_MSC_CAPS_WindSpeed_IsbL-0400_RLatLon0.03_PT001H.grib2 2026-05-01 18:12 1.0M
20260501T12Z_MSC_CAPS_WindSpeed_IsbL-0450_RLatLon0.03_PT001H.grib2 2026-05-01 18:12 1.3M
20260501T12Z_MSC_CAPS_WindSpeed_IsbL-0500_RLatLon0.03_PT001H.grib2 2026-05-01 18:12 1.3M
20260501T12Z_MSC_CAPS_WindSpeed_IsbL-0550_RLatLon0.03_PT001H.grib2 2026-05-01 18:12 1.3M
20260501T12Z_MSC_CAPS_WindSpeed_IsbL-0600_RLatLon0.03_PT001H.grib2 2026-05-01 18:12 1.3M
20260501T12Z_MSC_CAPS_WindSpeed_IsbL-0650_RLatLon0.03_PT001H.grib2 2026-05-01 18:12 1.3M
20260501T12Z_MSC_CAPS_WindSpeed_IsbL-0700_RLatLon0.03_PT001H.grib2 2026-05-01 18:12 1.4M
20260501T12Z_MSC_CAPS_WindSpeed_IsbL-0750_RLatLon0.03_PT001H.grib2 2026-05-01 18:12 1.5M
20260501T12Z_MSC_CAPS_WindSpeed_IsbL-0800_RLatLon0.03_PT001H.grib2 2026-05-01 18:12 1.6M
20260501T12Z_MSC_CAPS_WindSpeed_IsbL-0850_RLatLon0.03_PT001H.grib2 2026-05-01 18:12 1.6M
20260501T12Z_MSC_CAPS_WindSpeed_IsbL-0875_RLatLon0.03_PT001H.grib2 2026-05-01 18:12 1.7M
20260501T12Z_MSC_CAPS_WindSpeed_IsbL-0900_RLatLon0.03_PT001H.grib2 2026-05-01 18:12 1.7M
20260501T12Z_MSC_CAPS_WindSpeed_IsbL-0925_RLatLon0.03_PT001H.grib2 2026-05-01 18:12 1.8M
20260501T12Z_MSC_CAPS_WindSpeed_IsbL-0950_RLatLon0.03_PT001H.grib2 2026-05-01 18:12 1.8M
20260501T12Z_MSC_CAPS_WindSpeed_IsbL-0970_RLatLon0.03_PT001H.grib2 2026-05-01 18:12 1.9M
20260501T12Z_MSC_CAPS_WindSpeed_IsbL-0985_RLatLon0.03_PT001H.grib2 2026-05-01 18:12 1.9M
20260501T12Z_MSC_CAPS_WindSpeed_IsbL-1000_RLatLon0.03_PT001H.grib2 2026-05-01 18:12 2.0M
20260501T12Z_MSC_CAPS_WindSpeed_IsbL-1015_RLatLon0.03_PT001H.grib2 2026-05-01 18:12 2.0M
20260501T12Z_MSC_CAPS_WindU_AGL-10m_RLatLon0.03_PT001H.grib2 2026-05-01 18:12 2.0M
20260501T12Z_MSC_CAPS_WindU_AGL-120m_RLatLon0.03_PT001H.grib2 2026-05-01 18:12 1.2M
20260501T12Z_MSC_CAPS_WindU_AGL-40m_RLatLon0.03_PT001H.grib2 2026-05-01 18:12 1.2M
20260501T12Z_MSC_CAPS_WindU_AGL-80m_RLatLon0.03_PT001H.grib2 2026-05-01 18:12 1.2M
20260501T12Z_MSC_CAPS_WindU_IsbL-0050_RLatLon0.03_PT001H.grib2 2026-05-01 18:12 781K
20260501T12Z_MSC_CAPS_WindU_IsbL-0100_RLatLon0.03_PT001H.grib2 2026-05-01 18:12 773K
20260501T12Z_MSC_CAPS_WindU_IsbL-0150_RLatLon0.03_PT001H.grib2 2026-05-01 18:12 895K
20260501T12Z_MSC_CAPS_WindU_IsbL-0175_RLatLon0.03_PT001H.grib2 2026-05-01 18:12 702K
20260501T12Z_MSC_CAPS_WindU_IsbL-0200_RLatLon0.03_PT001H.grib2 2026-05-01 18:12 719K
20260501T12Z_MSC_CAPS_WindU_IsbL-0225_RLatLon0.03_PT001H.grib2 2026-05-01 18:12 870K
20260501T12Z_MSC_CAPS_WindU_IsbL-0250_RLatLon0.03_PT001H.grib2 2026-05-01 18:12 893K
20260501T12Z_MSC_CAPS_WindU_IsbL-0275_RLatLon0.03_PT001H.grib2 2026-05-01 18:12 902K
20260501T12Z_MSC_CAPS_WindU_IsbL-0300_RLatLon0.03_PT001H.grib2 2026-05-01 18:12 910K
20260501T12Z_MSC_CAPS_WindU_IsbL-0350_RLatLon0.03_PT001H.grib2 2026-05-01 18:12 926K
20260501T12Z_MSC_CAPS_WindU_IsbL-0400_RLatLon0.03_PT001H.grib2 2026-05-01 18:12 933K
20260501T12Z_MSC_CAPS_WindU_IsbL-0450_RLatLon0.03_PT001H.grib2 2026-05-01 18:12 943K
20260501T12Z_MSC_CAPS_WindU_IsbL-0500_RLatLon0.03_PT001H.grib2 2026-05-01 18:12 955K
20260501T12Z_MSC_CAPS_WindU_IsbL-0550_RLatLon0.03_PT001H.grib2 2026-05-01 18:12 853K
20260501T12Z_MSC_CAPS_WindU_IsbL-0600_RLatLon0.03_PT001H.grib2 2026-05-01 18:12 886K
20260501T12Z_MSC_CAPS_WindU_IsbL-0650_RLatLon0.03_PT001H.grib2 2026-05-01 18:12 924K
20260501T12Z_MSC_CAPS_WindU_IsbL-0700_RLatLon0.03_PT001H.grib2 2026-05-01 18:12 971K
20260501T12Z_MSC_CAPS_WindU_IsbL-0750_RLatLon0.03_PT001H.grib2 2026-05-01 18:12 1.3M
20260501T12Z_MSC_CAPS_WindU_IsbL-0800_RLatLon0.03_PT001H.grib2 2026-05-01 18:12 1.4M
20260501T12Z_MSC_CAPS_WindU_IsbL-0850_RLatLon0.03_PT001H.grib2 2026-05-01 18:12 1.1M
20260501T12Z_MSC_CAPS_WindU_IsbL-0875_RLatLon0.03_PT001H.grib2 2026-05-01 18:12 1.2M
20260501T12Z_MSC_CAPS_WindU_IsbL-0900_RLatLon0.03_PT001H.grib2 2026-05-01 18:12 1.2M
20260501T12Z_MSC_CAPS_WindU_IsbL-0925_RLatLon0.03_PT001H.grib2 2026-05-01 18:12 1.3M
20260501T12Z_MSC_CAPS_WindU_IsbL-0950_RLatLon0.03_PT001H.grib2 2026-05-01 18:12 1.3M
20260501T12Z_MSC_CAPS_WindU_IsbL-0970_RLatLon0.03_PT001H.grib2 2026-05-01 18:12 1.7M
20260501T12Z_MSC_CAPS_WindU_IsbL-0985_RLatLon0.03_PT001H.grib2 2026-05-01 18:12 1.7M
20260501T12Z_MSC_CAPS_WindU_IsbL-1000_RLatLon0.03_PT001H.grib2 2026-05-01 18:12 1.8M
20260501T12Z_MSC_CAPS_WindU_IsbL-1015_RLatLon0.03_PT001H.grib2 2026-05-01 18:12 1.9M
20260501T12Z_MSC_CAPS_WindV_AGL-10m_RLatLon0.03_PT001H.grib2 2026-05-01 18:12 2.0M
20260501T12Z_MSC_CAPS_WindV_AGL-120m_RLatLon0.03_PT001H.grib2 2026-05-01 18:12 1.2M
20260501T12Z_MSC_CAPS_WindV_AGL-40m_RLatLon0.03_PT001H.grib2 2026-05-01 18:12 1.2M
20260501T12Z_MSC_CAPS_WindV_AGL-80m_RLatLon0.03_PT001H.grib2 2026-05-01 18:12 1.2M
20260501T12Z_MSC_CAPS_WindV_IsbL-0050_RLatLon0.03_PT001H.grib2 2026-05-01 18:12 783K
20260501T12Z_MSC_CAPS_WindV_IsbL-0100_RLatLon0.03_PT001H.grib2 2026-05-01 18:12 773K
20260501T12Z_MSC_CAPS_WindV_IsbL-0150_RLatLon0.03_PT001H.grib2 2026-05-01 18:12 894K
20260501T12Z_MSC_CAPS_WindV_IsbL-0175_RLatLon0.03_PT001H.grib2 2026-05-01 18:12 830K
20260501T12Z_MSC_CAPS_WindV_IsbL-0200_RLatLon0.03_PT001H.grib2 2026-05-01 18:12 846K
20260501T12Z_MSC_CAPS_WindV_IsbL-0225_RLatLon0.03_PT001H.grib2 2026-05-01 18:12 868K
20260501T12Z_MSC_CAPS_WindV_IsbL-0250_RLatLon0.03_PT001H.grib2 2026-05-01 18:12 892K
20260501T12Z_MSC_CAPS_WindV_IsbL-0275_RLatLon0.03_PT001H.grib2 2026-05-01 18:12 903K
20260501T12Z_MSC_CAPS_WindV_IsbL-0300_RLatLon0.03_PT001H.grib2 2026-05-01 18:12 914K
20260501T12Z_MSC_CAPS_WindV_IsbL-0350_RLatLon0.03_PT001H.grib2 2026-05-01 18:12 927K
20260501T12Z_MSC_CAPS_WindV_IsbL-0400_RLatLon0.03_PT001H.grib2 2026-05-01 18:12 933K
20260501T12Z_MSC_CAPS_WindV_IsbL-0450_RLatLon0.03_PT001H.grib2 2026-05-01 18:12 942K
20260501T12Z_MSC_CAPS_WindV_IsbL-0500_RLatLon0.03_PT001H.grib2 2026-05-01 18:12 954K
20260501T12Z_MSC_CAPS_WindV_IsbL-0550_RLatLon0.03_PT001H.grib2 2026-05-01 18:12 854K
20260501T12Z_MSC_CAPS_WindV_IsbL-0600_RLatLon0.03_PT001H.grib2 2026-05-01 18:12 886K
20260501T12Z_MSC_CAPS_WindV_IsbL-0650_RLatLon0.03_PT001H.grib2 2026-05-01 18:12 1.2M
20260501T12Z_MSC_CAPS_WindV_IsbL-0700_RLatLon0.03_PT001H.grib2 2026-05-01 18:12 1.2M
20260501T12Z_MSC_CAPS_WindV_IsbL-0750_RLatLon0.03_PT001H.grib2 2026-05-01 18:12 1.0M
20260501T12Z_MSC_CAPS_WindV_IsbL-0800_RLatLon0.03_PT001H.grib2 2026-05-01 18:12 1.1M
20260501T12Z_MSC_CAPS_WindV_IsbL-0850_RLatLon0.03_PT001H.grib2 2026-05-01 18:12 1.1M
20260501T12Z_MSC_CAPS_WindV_IsbL-0875_RLatLon0.03_PT001H.grib2 2026-05-01 18:12 1.2M
20260501T12Z_MSC_CAPS_WindV_IsbL-0900_RLatLon0.03_PT001H.grib2 2026-05-01 18:12 1.2M
20260501T12Z_MSC_CAPS_WindV_IsbL-0925_RLatLon0.03_PT001H.grib2 2026-05-01 18:12 1.3M
20260501T12Z_MSC_CAPS_WindV_IsbL-0950_RLatLon0.03_PT001H.grib2 2026-05-01 18:12 1.7M
20260501T12Z_MSC_CAPS_WindV_IsbL-0970_RLatLon0.03_PT001H.grib2 2026-05-01 18:12 1.7M
20260501T12Z_MSC_CAPS_WindV_IsbL-0985_RLatLon0.03_PT001H.grib2 2026-05-01 18:12 1.9M
20260501T12Z_MSC_CAPS_WindV_IsbL-1000_RLatLon0.03_PT001H.grib2 2026-05-01 18:12 1.9M
20260501T12Z_MSC_CAPS_WindV_IsbL-1015_RLatLon0.03_PT001H.grib2 2026-05-01 18:12 2.0M